www.pogodaiklimat.ru

Погода и климат >> Архив погоды >> Канада >> Онтарио >> Виндзор


ПОГОДА в Виндзоре

  • Прогноз погоды в Виндзоре
  • Монитор погоды в Виндзоре

АРХИВ ПОГОДЫ в Виндзоре

Время (UTC), дата Ветер
(напр.,м/с)
 
Видим.   Явления Облачность Т
(С)
Тd
(С)
f
(%)
Тe
(С)
Тes
(С)
Комфортность P
(гПа)
Po
(гПа)
Тmin
(С)
Tmax
(С)
R
(мм)
R24
(мм)
S
(см)
06 19.03 ЮЗ 3 16 км ясно -1.0 -4.5 77 -6 -6 1029.3 1005.7 -3.7 +4.8 23
09 19.03 З 3 16 км ясно -2.1 -5.9 75 -7 -7 1029.1 1005.5
12 19.03 З 2 16 км ясно -3.1 -5.6 83 -7 -7 1030.2 1006.5 -3.9 +4.8
15 19.03 З 2 16 км ясно +3.7 -5.1 53 +1 +9 опасность
простуды
1030.9 1007.3
18 19.03 ЮЗ 4 16 км 9/9 1500 м
[]
+6.7 -3.5 48 +4 +4 1030.4 1006.9 -3.9 +7.3
21 19.03 ЮЗ 6 16 км ясно +7.6 -1.0 54 +4 +6 1028.0 1004.5
00 20.03 Ю 5 16 км ясно +3.5 -1.7 69 -1 -1 1027.5 1003.9 -3.9 +8.0
03 20.03 Ю 4 16 км ясно +1.2 -1.8 80 -4 -4 1027.1 1003.6
06 20.03 Ю 3 14 км ясно -0.2 -2.3 86 -5 -5 1026.0 1002.6 -3.9 +8.0 19
09 20.03 Ю 3 14 км ясно 0.0 -2.1 86 -5 -5 1024.8 1001.4
12 20.03 Ю 4 16 км ясно +0.5 -2.1 83 -5 -4 1024.0 1000.6 -2.2 +8.0
15 20.03 Ю 6 16 км 5/0
[]
+5.3 -0.6 66 +1 +3 1022.5 999.2
18 20.03 ЮЗ 7 16 км 10/0 2000 м
[]
+8.2 -0.1 56 +4 +6 1020.3 997.0 -2.2 +8.3
21 20.03 Ю 8 16 км слаб. дождь {осадки} 10/10 1000 м
[]
+5.7 +1.6 75 0 0 1018.1 994.8
00 21.03 Ю 6 16 км слаб. дождь {осадки} 10/10 1000 м
[]
+5.3 +2.1 80 +1 +1 1016.6 993.4 -2.2 +8.4 0.8
03 21.03 Ю 6 8000 м слаб. дождь {осадки} 10/10 300 м
[]
+4.4 +3.2 92 -1 -1 1015.9 992.8
06 21.03 Ю 4 4000 м дымка {осадки} 10/10 200 м
[]
+3.9 +3.5 97 -1 -1 1014.1 991.1 -2.2 +8.4 3 191
09 21.03 Ю 3 1600 м слаб. дождь 10/10 100 м
[]
+4.1 +3.8 98 +1 +1 1012.8 989.8
12 21.03 ЮЗ 1 100 м туман н/о +3.8 +3.7 99 +2 +2 1013.0 989.9 +3.7 +8.4
15 21.03 С 3 16 км 10/10 300 м
[]
+5.6 +3.3 85 +3 +3 1013.4 990.3
18 21.03 З 3 16 км 10/10 300 м
[]
+5.8 +2.5 79 +3 +3 1013.0 989.9 +3.7 +6.0
21 21.03 З 5 16 км 10/10 300 м
[]
+5.7 +1.6 75 +1 +1 1011.9 988.9
00 22.03 З 6 16 км 10/10 300 м
[]
+3.2 +0.5 82 -3 -3 1012.5 989.4 +3.2 +6.1
03 22.03 З 4 16 км 10/10 600 м
[]
+3.9 +0.9 81 -0 -0 1012.1 989.1
06 22.03 З 5 16 км 10/0
[]
+2.5 -0.8 79 -3 -3 1010.9 987.9 +2.5 +6.1 23
09 22.03 З 5 16 км 3/0
[]
+0.6 -1.2 88 -5 -5 1008.3 985.3
12 22.03 СЗ 6 16 км 10/0
[]
+2.3 -1.0 79 -3 -3 1009.3 986.2 +0.5 +6.1
15 22.03 С 7 16 км 10/10 600 м
[]
+3.0 -1.8 71 -3 -3 1011.7 988.6
18 22.03 СЗ 9 16 км осадки 10/10 1000 м
[]
+3.4 -1.9 68 -3 -3 1013.2 990.1 +0.5 +6.4
21 22.03 СЗ 9 16 км 10/10 1000 м
[]
+5.0 -4.2 51 -1 -1 1014.3 991.1
00 23.03 С 5 16 км 9/9 1500 м
[]
+2.1 -4.7 61 -3 -3 1017.8 994.5 +0.5 +6.4
03 23.03 СЗ 3 16 км ясно -1.3 -5.2 75 -6 -6 1020.6 997.2
06 23.03 СЗ 5 16 км ясно -1.4 -7.2 65 -7 -7 1022.2 998.8 -1.5 +6.4 201
09 23.03 0 16 км ясно -2.9 -8.0 68 1023.1 999.6
12 23.03 СЗ 4 16 км ясно -3.7 -8.0 72 -9 -9 1025.6 1002.0 -4.0 +6.4
15 23.03 З 3 16 км ясно +0.3 -7.8 54 -3 +4 1027.1 1003.5
18 23.03 З 3 16 км ясно +4.8 -8.7 37 +2 +13 опасность
простуды
1026.6 1003.1 -4.0 +5.5
21 23.03 З 4 16 км ясно +8.7 -8.5 29 +6 +10 1025.1 1001.7
00 24.03 ЮЗ 6 16 км ясно +4.4 -3.5 56 -0 -0 1024.9 1001.4 -4.0 +9.2
03 24.03 Ю 3 16 км ясно +0.4 -3.2 77 -4 -4 1024.6 1001.1
06 24.03 ЮЗ 3 16 км ясно -0.2 -3.7 77 -4 -4 1023.8 1000.4 -4.0 +9.2 19
09 24.03 ЮЗ 3 16 км 10/0
[]
-0.9 -4.3 78 -5 -5 1023.1 999.8
12 24.03 ЮЗ 2 16 км 10/0
[]
+0.5 -3.3 76 -2 -2 1022.8 999.4 -1.5 +9.2
15 24.03 ЮЗ 4 16 км 10/0
[]
+4.8 -0.9 67 +1 +4 1022.2 998.8
18 24.03 ЮЗ 6 16 км 9/0
[]
+9.6 -0.1 51 +6 +9 1019.9 996.7 -1.5 +10.2
21 24.03 ЮЗ 6 16 км 10/0
[]
+10.2 -2.6 41 +7 +8 1018.5 995.3
00 25.03 ЮЗ 4 16 км 10/0 2000 м
[]
+8.3 +1.0 60 +5 +5 1018.4 995.2 -1.5 +11.3
03 25.03 СВ 8 16 км 10/0
[]
+3.4 -1.2 72 -3 -3 1020.7 997.4
06 25.03 С 8 16 км 10/0 2000 м
[]
+0.8 -2.6 78 -6 -6 1021.7 998.5 -1.5 +11.3 41
09 25.03 С 5 16 км 10/0
[]
-0.6 -5.0 72 -7 -7 1022.2 998.9
12 25.03 СВ 10 16 км ясно -0.1 -10.5 45 -7 -7 1023.6 1000.3 -0.8 +11.3
15 25.03 СВ 8 16 км ясно +1.9 -10.3 40 -4 -3 1025.1 1001.7
18 25.03 СВ 6 16 км ясно +3.9 -10.1 35 -1 +4 1025.4 1001.9 -0.8 +4.3
21 25.03 СВ 7 16 км ясно +4.0 -13.3 27 -1 +1 1024.7 1001.2
00 26.03 СВ 5 16 км ясно 0.0 -7.8 56 -5 -5 1025.7 1002.1 -0.8 +5.2
03 26.03 СВ 3 16 км ясно -2.8 -8.5 65 -8 -8 1027.3 1003.7

 

Местоположение метеостанции Виндзор (Онтарио, Канада): широта 42.27 долгота -82.96 высота над уровнем моря 190 м.

В архиве по умолчанию представлена погода в Виндзоре за последнюю неделю. Архивные данные за месяц целиком и за предыдущие месяцы, начиная с января 2011 года, Вы можете получить, выбрав интересующий диапазон дат из раскрывающегося списка и нажав кнопку "Ввод!".


*Определитесь, кто Вы:
робот инопланетянин человек

Внимание! Время в таблицах - всемирное. Для получения местного времени необходимо прибавить поправку, которая равна -5 ч.

Смотрите также архив погоды в соседних городах и на ближайших метеорологических станциях:

Погода в Харроу (Онтарио, Канада) (27 км)
Погода в Поинт-Пили (Онтарио, Канада) (51 км)
Погода на Юго-Восточном Шоле (Онтарио, Канада) (64 км)
Погода в Эрио (Онтарио, Канада) (87 км)
Погода в Риджтауне (Онтарио, Канада) (91 км)
Погода в Рэд Пэйнс (Нью-Брансуик, Канада) (97 км)
Погода в Сарнии (Онтарио, Канада) (98 км)
Погода в Лондоне (Онтарио, Канада) (170 км)
Погода в Лондоне 2 (Онтарио, Канада) (170 км)
Погода в Годериче (Онтарио, Канада) (195 км)

Пояснения к столбцам:

Ветер - указаны скорость ветра в м/с - средняя за 10 мин, порывы в срок и между сроками (в фигурных скобках) и направление, откуда дует ветер: С - северный, СВ - северо-восточный, В - восточный, ЮВ - юго-восточный, Ю - южный, ЮЗ - юго-западный, З - западный, СЗ - северо-западный.
Видимость - горизонтальная дальность видимости в метрах или километрах. При видимости от 1 до 10 км при отсутствии осадков обычно наблюдается дымка, при ухудшении видимости до 1 км и менее - туман. В сухую погоду видимость может ухудшаться дымом, пылью или мглою.
Явления - указаны атмосферные явления, наблюдавшиеся в срок или в последний час перед сроком; фигурными скобками обозначены явления, наблюдавшиеся между сроками (за 1-3 часа до срока); квадратными скобками обозначены град или гололедные отложения с указанием их диаметра в мм.
Облачность - указаны через наклонную черту общая и нижняя облачность в баллах и высота нижней границы облаков в метрах; квадратными скобками обозначены формы облаков: Ci - перистые, Cs - перисто-слоистые, Cc - перисто-кучевые, Ac - высококучевые, As - высокослоистые, Sc - слоисто-кучевые, Ns - слоисто-дождевые, Cu - кучевые, Cb - кучево-дождевые. Подробнее классификацию облаков см. в Атласе облаков (PDF).
T - Температура воздуха - температура, измеренная на высоте 2 м над землей.
Td - Температура точки росы - температура, при понижении до которой содержащийся в воздухе водяной пар достигнет насыщения.
f - Относительная влажность воздуха - влажноcть воздуха, измеренная на высоте 2 м над землей.
Te - Эффективная температура - температура, которую ощущает одетый по сезону человек в тени. Характеристика душности погоды. При расчете учитывается влияние влажности воздуха и скорости ветра на теплоощущения человека.
Tes - Эффективная температура на солнце - температура, которую ощущает человек, с поправкой на солнечный нагрев. Характеристика знойности погоды. Зависит от высоты солнца над горизонтом, облачности и скорости ветра. Ночью, в пасмурную погоду, а также при ветре 12 м/с и более поправка равна нулю.
P - Атмосферное давление - приведенное к уровню моря атмосферное давление.
Po - Атмосферное давление - измеренное на уровне метеостанции атмосферное давление.
Tmin - Минимальная температура - минимум температуры воздуха на высоте 2 м над землей.
Tmax - Максимальная температура - максимум температуры воздуха на высоте 2 м над землей.
R - Количество осадков - Количество выпавших осадков за период времени, мм. При наведении курсора мыши на число - период времени, за который выпало указанное количество осадков.
R24 - Количество осадков - Количество выпавших осадков за 24 часа, мм.
S - Снежный покров - Высота снежного покрова, см. При наведении курсора мыши на число - состояние снежного покрова и степень покрытия местности в баллах.